, AK

(GMT )
McGrath

Weather History for PAMC - January, 2013

Change the Weather History Date:

Friday, January 11, 2013

  Actual Average Record
Temperature  
Mean Temperature 12 °F -7 °F  
Max Temperature 19 °F - 42 °F (1997)
Min Temperature 5 °F -16 °F -57 °F (1972)
Degree Days  
Heating Degree Days 53 72  
Month to date heating degree days 606 791  
Since 1 July heating degree days 7371 7037  
Cooling Degree Days 0    
Month to date cooling degree days 0  
Year to date cooling degree days 0  
Moisture  
Dew Point 12 °F    
Average Humidity 0    
Maximum Humidity 0    
Minimum Humidity 0    
Precipitation  
Precipitation 0.31 in 0.03 in 0.95 in (1957)
Month to date precipitation 0.51 0.43  
Year to date precipitation 0.51 0.43  
Snow  
Snow 3.70 in 0.50 in 10.50 in (1957)
Month to date snowfall 7.4 6.1  
Since 1 July snowfall 41.1 57.3  
Snow Depth 29.00 in    
Sea Level Pressure  
Sea Level Pressure 29.95 in    
Wind  
Wind Speed 1 mph (SE)    
Max Wind Speed 7 mph    
Max Gust Speed 10 mph    
Visibility 6 miles    
Events Snow    
T = Trace of Precipitation, MM = Missing Value Source: NWS Daily Summary

Daily Weather History Graph

Daily Weather History Graph

Search for Another Location

Airport or City:

Trip Planner

Search our weather history database for the weather conditions in past years. The results will help you decide how hot, cold, wet, or windy it might be!

Date:

Astronomy

Jan. 11, 2013 Rise Set
Actual Time 10:42 AM AKST 4:18 PM AKST
Civil Twilight 9:38 AM AKST 5:22 PM AKST
Nautical Twilight 8:37 AM AKST 6:24 PM AKST
Astronomical Twilight 7:41 AM AKST 7:20 PM AKST
Moon 10:01 AM AKST (1/11) 5:18 PM AKST (1/11)
Length of Visible Light 7h 43m
Length of Day
5h 35m
New Moon, 0% of the Moon is Illuminated
Jan 11
New Moon
Jan 18
First Quarter
Jan 26
Full
Feb 3
Last Quarter
Feb 9
New

Hourly Weather History & Observations

Time (AKST) Temp. Windchill Dew Point Humidity Pressure Visibility Wind Dir Wind Speed Gust Speed Precip Events Conditions
12:53 AM 15.1 °F 9.4 °F 12.0 °F 88% 29.78 in 10.0 mi WSW 3.5 mph - N/A   Overcast
1:53 AM 18.0 °F - 15.1 °F 88% 29.81 in 10.0 mi Calm Calm - N/A   Overcast
3:53 AM 16.0 °F - 12.9 °F 88% 29.84 in 10.0 mi Calm Calm - N/A   Overcast
4:46 AM 15.8 °F 10.2 °F 12.2 °F 86% 29.81 in 2.0 mi ESE 3.5 mph - 0.00 in Snow Light Snow
4:53 AM 17.1 °F - 12.9 °F 84% 29.84 in 1.5 mi Calm Calm - 0.00 in Snow Light Snow
5:15 AM 17.6 °F 12.3 °F 14.0 °F 86% 29.81 in 1.0 mi ESE 3.5 mph - 0.02 in Snow Light Snow
5:28 AM 17.6 °F 12.3 °F 14.0 °F 86% 29.80 in 0.8 mi ESE 3.5 mph - 0.02 in Snow Light Snow
5:49 AM 17.6 °F - 15.8 °F 93% 29.81 in 1.0 mi Calm Calm - 0.05 in Snow Light Snow
5:53 AM 18.0 °F - 15.1 °F 88% 29.84 in 1.0 mi Calm Calm - 0.05 in Snow Light Snow
6:16 AM 17.6 °F 12.3 °F 15.8 °F 93% 29.81 in 0.8 mi SE 3.5 mph - 0.02 in Snow Light Snow
6:28 AM 17.6 °F - 15.8 °F 93% 29.81 in 1.0 mi Calm Calm - 0.03 in Snow Light Snow
6:53 AM 18.0 °F - 15.1 °F 88% 29.85 in 1.2 mi Calm Calm - 0.04 in Snow Light Snow
7:07 AM 17.6 °F - 15.8 °F 93% 29.82 in 0.8 mi Calm Calm - 0.01 in Snow Light Snow
7:28 AM 17.6 °F - 15.8 °F 93% 29.82 in 1.0 mi Calm Calm - 0.03 in Snow Light Snow
7:35 AM 17.6 °F - 15.8 °F 93% 29.82 in 0.8 mi Calm Calm - 0.04 in Snow Light Snow
7:53 AM 18.0 °F - 15.1 °F 88% 29.86 in 0.8 mi Calm Calm - 0.06 in Snow Light Snow
8:34 AM 19.4 °F - 15.8 °F 86% 29.86 in 1.0 mi Calm Calm - 0.10 in Snow Light Snow
8:42 AM 19.4 °F - 15.8 °F 86% 29.86 in 0.8 mi Calm Calm - 0.11 in Snow Light Snow
8:53 AM 19.0 °F 13.9 °F 15.1 °F 85% 29.89 in 0.8 mi Variable 3.5 mph - 0.12 in Snow Light Snow
9:10 AM 17.6 °F 12.3 °F 15.8 °F 93% 29.87 in 1.0 mi SSE 3.5 mph - 0.01 in Snow Light Snow
9:53 AM 18.0 °F - 15.1 °F 88% 29.91 in 1.2 mi Calm Calm - 0.03 in Snow Light Snow
10:06 AM 17.6 °F - 15.8 °F 93% 29.90 in 1.5 mi Calm Calm - 0.01 in Snow Light Snow
10:18 AM 17.6 °F - 15.8 °F 93% 29.90 in 3.0 mi Calm Calm - 0.01 in Snow Light Snow
11:53 AM 16.0 °F 10.4 °F 12.9 °F 88% 29.99 in 10.0 mi SSE 3.5 mph - N/A   Mostly Cloudy
12:04 PM 15.8 °F 8.6 °F 12.2 °F 86% 29.96 in 10.0 mi Variable 4.6 mph - N/A   Scattered Clouds
12:53 PM 17.1 °F 7.6 °F 14.0 °F 88% 30.02 in 10.0 mi SE 6.9 mph - N/A   Scattered Clouds
1:09 PM 17.6 °F 10.7 °F 14.0 °F 86% 30.00 in 10.0 mi Variable 4.6 mph - N/A   Mostly Cloudy
1:53 PM 19.0 °F 13.9 °F 16.0 °F 88% 30.06 in 10.0 mi East 3.5 mph - N/A   Mostly Cloudy
2:41 PM 17.6 °F - 15.8 °F 93% 30.04 in 10.0 mi Calm Calm - N/A   Mostly Cloudy
2:53 PM 19.0 °F - 15.1 °F 85% 30.07 in 10.0 mi Calm Calm - N/A   Mostly Cloudy
3:53 PM 12.9 °F - 10.0 °F 88% 30.09 in 10.0 mi Calm Calm - N/A   Scattered Clouds
4:53 PM 8.1 °F - 5.0 °F 87% 30.11 in 10.0 mi Calm Calm - N/A   Mostly Cloudy
5:42 PM 5.0 °F - 1.4 °F 85% 30.09 in 10.0 mi Calm Calm - N/A   Overcast
5:53 PM 6.1 °F - 1.9 °F 83% 30.12 in 10.0 mi Calm Calm - N/A   Overcast
6:53 PM 9.0 °F - 6.1 °F 88% 30.12 in 10.0 mi Calm Calm - N/A   Overcast
7:21 PM 8.6 °F - 6.8 °F 92% 30.09 in 10.0 mi Calm Calm - N/A   Overcast
7:31 PM 8.6 °F - 6.8 °F 92% 30.10 in 10.0 mi Calm Calm - N/A   Overcast
7:53 PM 10.0 °F - 7.0 °F 87% 30.12 in 10.0 mi Calm Calm - N/A   Overcast
8:03 PM 10.4 °F - 6.8 °F 85% 30.09 in 10.0 mi Calm Calm - N/A   Overcast
8:53 PM 10.9 °F 4.7 °F 8.1 °F 88% 30.12 in 10.0 mi Variable 3.5 mph - N/A   Overcast
9:53 PM 12.0 °F 5.9 °F 9.0 °F 88% 30.08 in 10.0 mi WNW 3.5 mph - N/A   Overcast
10:53 PM 12.0 °F - 10.0 °F 92% 30.06 in 10.0 mi Calm Calm - N/A   Overcast
11:34 PM 12.2 °F 6.1 °F 8.6 °F 85% 30.02 in 10.0 mi NW 3.5 mph - N/A   Overcast
11:50 PM 12.2 °F - 8.6 °F 85% 30.01 in 10.0 mi Calm Calm - N/A   Overcast
11:53 PM 12.0 °F - 9.0 °F 88% 30.04 in 10.0 mi Calm Calm - N/A   Overcast